Вернуться в каталог

STARLINK-5278

АктивенСвязьVLEO
NORAD 54164·PAYLOAD·🇺🇸 United States

Запущен Oct 28, 2022 с Vandenberg Space Force Base

Loading…

Ближайшие Пролёты (ближайшие 24 часа)

TLE

СвежийSource: CelesTrak SupGP

Эпоха: Sep 14, 2026, 13:18 UTC

1 54164C 22141H   26257.55465278 -.00056297  00000+0 -16634-2 0  2573
2 54164  53.1567 221.7372 0001260  89.9453  70.8974 15.34416349    16

Отслеживайте STARLINK-5278 в реальном времени с AllMySat

Download on the App Store